DW6099 Weather Reports


Display with metric or nautical units.
time (UTC)temp
F
wind
direction
speed
MPH
gust
MPH
rain 1hr
in
rain 24hr
in
rain mn
in
humidity
%
barometer
mb
20260510130035 49 296 0.0 0.0 0.00 0.00 0.00 92 1002.4
20260510124534 49 296 0.0 0.0 0.00 0.00 0.00 92 1002.4
20260510123033 49 296 0.0 0.0 0.00 0.00 0.00 92 1002.4
20260510121532 49 296 0.0 0.0 0.00 0.00 0.00 91 1002.4
20260510120032 49 296 0.0 0.0 0.00 0.00 0.00 92 1002.4
20260510114530 49 296 0.0 0.0 0.00 0.00 0.00 91 1002.4
20260510113030 49 296 0.0 0.0 0.00 0.00 0.00 91 1002.4
20260510111533 50 296 0.0 0.0 0.00 0.00 0.00 90 1002.4
20260510110029 50 296 0.0 0.0 0.00 0.00 0.00 91 1002.4
20260510104525 50 296 0.0 0.0 0.00 0.00 0.00 89 1002.4
20260510103026 51 296 0.0 0.0 0.00 0.00 0.00 89 1002.4
20260510101524 52 296 0.0 0.0 0.00 0.00 0.00 88 1002.4
20260510100020 52 296 0.0 0.0 0.00 0.00 0.00 87 1002.4
20260510094534 53 296 0.0 0.0 0.00 0.00 0.00 84 1002.4
20260510093019 53 296 0.0 0.0 0.00 0.00 0.00 86 1002.4
20260510091516 53 300 0.0 0.0 0.00 0.00 0.00 86 1002.4
20260510090016 53 300 0.0 0.0 0.00 0.00 0.00 86 1002.4
20260510084518 53 300 0.0 0.0 0.00 0.00 0.00 84 1002.4
20260510083011 55 296 0.0 0.0 0.00 0.00 0.00 83 1002.4
20260510081509 55 296 0.0 0.0 0.00 0.00 0.00 83 1002.4
20260510080021 55 296 0.0 0.0 0.00 0.00 0.00 83 1002.4
20260510074508 55 296 0.0 0.0 0.00 0.00 0.00 85 1002.4
20260510073017 55 296 0.0 0.0 0.00 0.00 0.00 85 1002.4
20260510071506 55 296 0.0 0.0 0.00 0.00 0.00 84 1002.4
20260510070006 55 296 0.0 0.0 0.00 0.00 0.00 83 1002.4
20260510064503 56 296 0.0 0.0 0.00 0.00 0.00 82 1002.4
20260510063006 57 282 0.0 0.0 0.00 0.00 0.00 78 1002.4
20260510061507 60 267 0.0 0.0 0.00 0.00 0.00 74 1002.4
20260510060002 61 267 0.0 0.0 0.00 0.00 0.00 71 1002.4
20260510054502 63 267 0.0 0.0 0.00 0.00 0.00 68 1002.4
20260510053001 63 267 0.0 0.0 0.00 0.00 0.00 67 1002.4
20260510051501 62 267 0.0 0.0 0.00 0.00 0.00 69 1002.4
20260510050001 63 267 0.0 0.0 0.00 0.00 0.00 69 1002.4
20260510044618 64 267 0.0 0.0 0.00 0.00 0.00 66 1002.4
20260510043100 65 267 0.0 0.0 0.00 0.00 0.00 64 1002.4
20260510041559 65 267 0.0 0.0 0.00 0.00 0.00 63 1002.4
20260510040059 67 267 0.0 0.0 0.00 0.00 0.00 62 1002.4
20260510034558 68 267 0.0 0.0 0.00 0.00 0.00 60 1002.4
20260510033109 70 267 0.0 0.0 0.00 0.00 0.00 57 1002.4
20260510031558 71 267 0.0 0.0 0.00 0.00 0.00 55 1002.4
20260510030105 72 267 0.0 4.0 0.00 0.00 0.00 52 1002.4
20260510024557 73 301 0.0 0.0 0.00 0.00 0.00 48 1002.4
20260510023055 73 19 0.0 0.0 0.00 0.00 0.00 47 1002.4
20260510021600 73 19 0.0 0.0 0.00 0.00 0.00 50 1002.4
20260510020056 73 19 0.0 0.0 0.00 0.00 0.00 47 1002.4
20260510014556 73 19 0.0 0.0 0.00 0.00 0.00 50 1002.4
20260510013054 73 19 0.0 0.0 0.00 0.00 0.00 48 1002.4
20260510011554 73 19 0.0 0.0 0.00 0.00 0.00 50 1002.4
20260510010053 73 19 0.0 0.0 0.00 0.00 0.00 48 1002.4
20260510004553 74 19 0.0 3.0 0.00 0.00 0.00 45 1002.4
20260510003051 73 19 2.0 6.0 0.00 0.00 0.00 43 1002.4
20260510001552 73 14 3.0 6.0 0.00 0.00 0.00 48 1002.4
20260510000052 74 15 4.0 6.0 0.00 0.00 0.00 49 1002.4
20260509234551 74 15 0.0 6.0 0.00 0.00 0.00 46 1002.4
20260509233048 74 15 3.0 7.0 0.00 0.00 0.00 51 1002.4
20260509231547 73 13 4.0 8.0 0.00 0.00 0.00 53 1002.4
20260509230047 73 13 4.0 8.0 0.00 0.00 0.00 50 1002.4
20260509224544 73 13 5.0 8.0 0.00 0.00 0.00 50 1002.4
20260509223042 73 13 4.0 8.0 0.00 0.00 0.00 55 1002.4
20260509221541 72 13 3.0 8.0 0.00 0.00 0.00 54 1002.4
20260509220040 72 9 5.0 7.0 0.00 0.00 0.00 54 1002.4
20260509214536 71 19 6.0 8.0 0.00 0.00 0.00 59 1002.4
20260509213034 70 15 4.0 8.0 0.00 0.00 0.00 62 1002.4
20260509211533 71 15 4.0 7.0 0.00 0.00 0.00 62 1002.4
20260509210035 69 12 5.0 10.0 0.00 0.00 0.00 59 1002.4
20260509204531 70 10 6.0 9.0 0.00 0.00 0.00 64 1002.4
20260509203038 69 19 6.0 10.0 0.00 0.00 0.00 62 1002.4
20260509201527 69 17 4.0 8.0 0.00 0.00 0.00 68 1002.4
20260509200024 68 13 4.0 8.0 0.00 0.00 0.00 65 1002.4
20260509194522 67 5 4.0 8.0 0.00 0.00 0.00 68 1002.4
20260509193022 67 13 6.0 9.0 0.00 0.00 0.00 69 1002.4
20260509191522 66 20 7.0 10.0 0.00 0.00 0.00 68 1002.4
20260509190024 67 355 6.0 11.0 0.00 0.00 0.00 69 1002.4
20260509184515 65 350 3.0 8.0 0.00 0.00 0.00 72 1002.4
20260509183014 65 10 7.0 10.0 0.00 0.00 0.00 73 1002.4
20260509181511 64 15 5.0 9.0 0.00 0.00 0.00 71 1002.4
20260509180010 62 15 4.0 8.0 0.00 0.00 0.00 75 1002.4
20260509174507 62 15 2.0 7.0 0.00 0.00 0.00 75 1002.4
20260509173005 61 15 3.0 7.0 0.00 0.00 0.00 76 1002.4
20260509171503 60 19 4.0 7.0 0.00 0.00 0.00 78 1002.4
20260509170100 59 14 5.0 7.0 0.00 0.00 0.00 79 1002.4
20260509164556 58 14 3.0 9.0 0.00 0.00 0.00 82 1002.4
20260509163054 58 19 5.0 8.0 0.00 0.00 0.00 83 1002.4
20260509161551 57 17 5.0 8.0 0.00 0.00 0.00 84 1002.4
20260509160049 56 5 5.0 8.0 0.00 0.00 0.00 86 1002.4
20260509154547 56 5 2.0 6.0 0.00 0.00 0.00 87 1002.4
20260509153058 55 5 4.0 7.0 0.00 0.00 0.00 88 1002.4
20260509151548 54 11 2.0 7.0 0.00 0.00 0.00 92 1002.4
20260509150038 51 16 0.0 0.0 0.00 0.00 0.00 96 1002.4
20260509144536 49 16 0.0 0.0 0.00 0.00 0.00 96 1002.4
20260509143036 47 16 0.0 0.0 0.00 0.00 0.00 95 1002.4
20260509141536 46 16 0.0 0.0 0.00 0.00 0.00 95 1002.4
20260509140043 45 16 0.0 0.0 0.00 0.00 0.00 94 1002.4
20260509134539 44 16 0.0 0.0 0.00 0.00 0.00 94 1002.4
20260509133034 44 16 0.0 0.0 0.00 0.00 0.00 93 1002.4
20260509131538 43 16 0.0 0.0 0.00 0.00 0.00 93 1002.4